Tracking 19576 objects as of 17-Feb-2019
HD Live streaming from Space Station
objects crossing your sky now

SL-16 DEB

Track SL-16 DEB now!
10-day predictions


NORAD ID: 42235
Int'l Code: 1993-016CP
Perigee: 748.4 km
Apogee: 951.8 km
Inclination: 71.0 °
Period: 101.8 minutes
Semi major axis: 7221 km
RCS: Unknown
Launch date: March 26, 1993
Source: Commonwealth of Independent States (former USSR) (CIS)
Launch site: PLESETSK MISSILE AND SPACE COMPLEX (PKMTR)

Note: This is SATELLITE DEBRIS
aabbcc
Your satellite tracking list
Your tracking list is empty




NASA's NSSDC Master Catalog

Two Line Element Set (TLE):
1 42235U 93016CP  19047.15026423  .00001754  00000-0  84843-3 0  9996
2 42235  70.9978 319.8490 0140801   6.5283 353.7629 14.14810228736530
Source of the keplerian elements: AFSPC